Location: S�tio Afonso Gruber
(26.1760°S, 49.5250°W)
Time: 18:03:34
(UTC+00:00)

MOZHAYETS 4 - Visible Passes

Search period start: 30 November 2022 00:00
Search period end: 10 December 2022 00:00
Orbit: 659 x 678 km, 98.2° (Epoch: 30 November)

Date Brightness Start Highest point End Pass type
(mag) Time Alt. Az. Time Alt. Az. Time Alt. Az.
30 Nov 7.8 06:48:24 10° S 06:52:58 60° WSW 06:55:10 29° NW visible
01 Dec 9.7 05:44:38 10° SE 05:48:08 21° E 05:49:38 18° ENE visible
01 Dec 9.0 07:21:19 10° SSW 07:25:02 24° WSW 07:27:48 14° WNW visible
02 Dec 8.3 06:15:58 10° SSE 06:20:29 53° E 06:22:16 32° NNE visible
03 Dec 7.8 06:48:08 10° S 06:52:41 60° WSW 06:54:54 29° NW visible
04 Dec 9.7 05:44:23 10° SE 05:47:51 21° E 05:49:21 18° ENE visible
04 Dec 9.0 07:21:02 10° SSW 07:24:45 25° WSW 07:27:32 14° WNW visible
05 Dec 8.3 06:15:41 10° SSE 06:20:12 52° E 06:21:59 32° NNE visible
06 Dec 7.8 06:47:50 10° S 06:52:24 61° WSW 06:54:36 29° NW visible
07 Dec 9.8 05:44:07 10° SE 05:47:33 21° E 05:49:03 18° ENE visible
07 Dec 8.9 07:20:43 10° SSW 07:24:28 25° WSW 07:27:14 15° WNW visible
08 Dec 8.4 06:15:24 10° SSE 06:19:53 51° E 06:21:40 32° NNE visible
09 Dec 7.7 06:47:32 10° S 06:52:05 62° WSW 06:54:17 29° NNW visible
